Torna al catalogo

THOR ABLESTAR DEB

AttivoLEO
NORAD 223·DEBRIS·🇺🇸 United States

Lanciato Jun 29, 1961 da Cape Canaveral Space Force Station

Loading…

Prossimi Passaggi (prossime 24 ore)

TLE

AggiornatoSource: Space-Track

Epoca: Sep 13, 2026, 23:42 UTC

1 00223U 61015BK  26256.98758847 -.00000025  00000-0  40851-4 0  9997
2 00223  66.8887 106.3546 0074514 262.1905  97.0710 13.89027250303202

Traccia THOR ABLESTAR DEB in tempo reale con AllMySat

Download on the App Store